OpenBCM V1.13 (Linux)

Packet Radio Mailbox

DB0FHN

[JN59NK Nuernberg]

 Login: GUEST





  
WG3K   > KEPS     24.11.24 03:34l 363 Lines 17385 Bytes #999 (0) @ AMSAT
BID : ORB24329.1
Read: DL5MBW DJ6UX GUEST
Subj: 2Line Orbital Elements 24329.AMSAT
Path: DB0FHN<DB0LHR<OK1TOR<OE2XZR<OE6XPE<DB0ERF<DK0WUE<DK0WUE<VK5RSV<K7EK<
      KA1VSC<WG3K
Sent: 241124/0114Z 10305@WG3K.#SMD.MD.USA.NOAM LinBPQ6.0.24


QST de W1STR

AMSAT Orbital Elements for Amateur Satellites in TLE Format
From Orbital Analysis Office
New England Sci-Tech STEM Education Center
Natick, MA November 24, 2024
To all radio amateurs


These element sets describe the orbits of various satellites 
in use by the amateur radio community. For details see:
www.amsat.org/keplerian-elements-formats/

A daily update of element sets is available at:
www.amsat.org/tle/daily-bulletin.txt
or without bulletin text:
www.amsat.org/tle/dailytle.txt


AO-07
1 07530U 74089B   24328.26873942 -.00000019  00000-0  16840-3 0  9996
2 07530 101.9896 324.4693 0012299 139.6856 290.5584 12.53682811288977
UO-11
1 14781U 84021B   24328.80426017  .00003800  00000-0  41881-3 0  9999
2 14781  97.7280 293.6052 0006126 271.9893  88.0623 14.88084058193216
AO-27
1 22825U 93061C   24328.16551094  .00000314  00000-0  13746-3 0  9990
2 22825  98.7680  22.4428 0007964 341.1249  18.9637 14.30661356625610
FO-29
1 24278U 96046B   24328.53015363  .00000011  00000-0  44588-4 0  9998
2 24278  98.5864 242.3186 0350762 135.4458 227.5458 13.53222639396236
NOAA-15
1 25338U 98030A   24328.78683132  .00000393  00000-0  17976-3 0  9996
2 25338  98.5555 352.5010 0009642 213.0976 146.9603 14.26803208380199
GO-32
1 25397U 98043D   24328.37274973  .00000306  00000-0  15287-3 0  9996
2 25397  98.9456 297.6583 0002310  72.0561 288.0869 14.24194758370079
ISS
1 25544U 98067A   24328.91879963  .00026039  00000-0  46369-3 0  9992
2 25544  51.6410 244.0309 0007493 261.5280 144.0882 15.49916994483322
NO-44
1 26931U 01043C   24328.79958844  .00000613  00000-0  26150-3 0  9999
2 26931  67.0508 279.1215 0007159 261.8396  98.1893 14.31508465208952
SO-50
1 27607U 02058C   24328.37356848  .00003923  00000-0  52660-3 0  9999
2 27607  64.5542  91.7873 0032370  30.8081 329.4915 14.80348597179874
CO-55
1 27844U 03031E   24327.95043250  .00000950  00000-0  43533-3 0  9993
2 27844  98.6786 332.8227 0010608  48.2364 311.9719 14.23653610110408
CO-57
1 27848U 03031J   24327.94971826  .00000732  00000-0  34399-3 0  9993
2 27848  98.6815 332.9702 0010647  63.7124 296.5146 14.23038600110119
RS-22
1 27939U 03042A   24328.78661470  .00003272  00000-0  53865-3 0  9991
2 27939  98.3071 127.8443 0010640 276.8380 207.2135 14.71223964131738
NOAA-18
1 28654U 05018A   24328.77971449  .00000449  00000-0  26210-3 0  9997
2 28654  98.8628  44.3375 0013621 334.2681  25.7812 14.13428795  5806
CO-58
1 28895U 05043F   24328.34587523  .00005006  00000-0  85291-3 0  9999
2 28895  98.2226 104.7919 0014698 211.9395 148.0920 14.69410455 17812
CO-65
1 32785U 08021C   24328.49050405  .00011102  00000-0  88512-3 0  9994
2 32785  97.7717 293.0446 0011860 158.6616 201.5105 15.00445310899331
AAUSAT2
1 32788U 08021F   24328.19907573  .00073954  00000-0  22414-2 0  9992
2 32788  97.6048 310.5877 0004936  39.2976 320.8624 15.33848843902545
CO-66
1 32791U 08021J   24327.86683333  .00022023  00000-0  13425-2 0  9997
2 32791  97.7099 298.9643 0007019 111.5662 248.6316 15.10353904900410
RS-30
1 32953U 08025A   24328.74454002  .00000042  00000-0  23000-3 0  9996
2 32953  82.5041 350.2443 0020626 115.9742 244.3465 12.43153658748959
PRISM
1 33493U 09002B   24328.42829790  .00083468  00000-0  22838-2 0  9997
2 33493  98.1805  31.3644 0008040  55.7786 304.4217 15.37001309863339
NOAA-19
1 33591U 09005A   24328.75445797  .00000385  00000-0  22992-3 0  9995
2 33591  99.0274  26.0948 0013549 198.6600 161.4077 14.13207276814164
SRMSAT
1 37841U 11058D   24328.22753184  .00000680  00000-0  22686-3 0  9990
2 37841  19.9723 274.7448 0011836  44.1686  94.6399 14.11290296677050
RS-40
1 38735U 12041C   24328.75776727  .00000050  00000-0  29058-3 0  9993
2 38735  82.4770  70.3823 0016991 228.6160 131.3459 12.42620941559084
ZACUBE-1
1 39417U 13066B   24327.85848669  .00012172  00000-0  11547-2 0  9995
2 39417  97.7549 280.7829 0047724 357.3559   2.7401 14.92822462595221
Delfi-N3xt
1 39428U 13066N   24328.18896108  .00018685  00000-0  21298-2 0  9994
2 39428  97.8353 242.7590 0091098 292.6078  66.5518 14.83184686589612
GOMX-1
1 39430U 13066Q   24328.74061025  .00004005  00000-0  64331-3 0  9998
2 39430  97.7059 193.4264 0137466 104.5343 257.1155 14.65962648586404
LO-74
1 39440U 13066AA  24328.83046662  .00008163  00000-0  88965-3 0  9997
2 39440  97.8286 269.4848 0067901 110.3752 250.4774 14.86532743593228
AO-73
1 39444U 13066AE  24328.33190089  .00016588  00000-0  14208-2 0  9997
2 39444  97.7395 284.8956 0043595 333.7842  26.1172 14.96888159593874
DTUSAT-2
1 40030U 14033W   24328.34094589  .00015449  00000-0  11486-2 0  9994
2 40030  98.0325 285.6606 0011508  24.3871 335.7895 15.03033953566569
EO-80
1 40032U 14033Y   24328.30507667  .00016403  00000-0  12179-2 0  9999
2 40032  98.0205 285.5389 0008397 320.4396  39.6214 15.03095780566537
XW-2C
1 40906U 15049H   24328.77398230  .00116369  00000-0  11599-2 0  9999
2 40906  97.4600 351.7306 0007256  84.6103 275.5984 15.65266241509219
LILACSAT-2
1 40908U 15049K   24328.76834819  .00017850  00000-0  57999-3 0  9998
2 40908  97.5210 339.1928 0012210 138.5940 221.6229 15.31906642507876
IO-86
1 40931U 15052B   24322.18265442  .00001592  00000-0  12634-3 0  9991
2 40931   6.0008 339.1587 0012218  92.8814 267.2712 14.78351066494134
ChubuSat-2
1 41338U 16012B   24328.73711967  .00010771  00000-0  60799-3 0  9999
2 41338  31.0001  81.4520 0010627  43.9091 316.2391 15.11840050481731
ChubuSat-3
1 41339U 16012C   24328.69358433  .00009936  00000-0  57603-3 0  9991
2 41339  31.0070  81.4786 0010764  45.5642 314.5876 15.10860958481696
Horyu-4
1 41340U 16012D   24328.52537597  .00026946  00000-0  10550-2 0  9994
2 41340  31.0028  11.6059 0009945 163.8349 196.2612 15.24584160482413
Lapan A3
1 41603U 16040E   24328.75722737  .00006159  00000-0  23176-3 0  9997
2 41603  97.1402 335.4508 0009622 251.9705 108.0486 15.27429456467565
Pratham
1 41783U 16059A   24327.97166903  .00001910  00000-0  35716-3 0  9999
2 41783  97.8304 339.8834 0030823 235.2365 124.5937 14.65677808435797
CAS-2T
1 41847U 16066G   24328.23238034  .00002340  00000-0  34271-3 0  9996
2 41847  98.4448  38.3300 0350872  58.0725 305.4085 14.42433948422412
CAS-4B
1 42759U 17034B   24328.68683424  .00041965  00000-0  10417-2 0  9992
2 42759  43.0151  38.6554 0013950 351.9251   8.1379 15.39558747411882
CAS-4A
1 42761U 17034D   24328.67115228  .00046893  00000-0  11510-2 0  9996
2 42761  43.0190  36.9236 0014473   1.0064 359.0819 15.39850771411892
D-SAT
1 42794U 17036AF  24328.42038720  .00017951  00000-0  11239-2 0  9999
2 42794  97.4951 304.9580 0101208 327.5298  31.9727 15.05202274404634
TechnoSat
1 42829U 17042E   24328.45953684  .00007012  00000-0  58069-3 0  9993
2 42829  97.3885 140.9318 0010762 259.0938 100.9075 14.99110779401011
AO-91
1 43017U 17073E   24328.20584005  .00014843  00000-0  82347-3 0  9993
2 43017  97.5516 198.3703 0196529 119.3377 242.7637 14.98799457379434
S-Net D
1 43186U 18014G   24328.57433343  .00009749  00000-0  63561-3 0  9990
2 43186  97.5758 227.8048 0009607 170.9747 189.1656 15.08062297372494
S-Net B
1 43187U 18014H   24328.57760070  .00009795  00000-0  63869-3 0  9993
2 43187  97.5765 227.7687 0010535 166.8429 193.3076 15.08049365372498
S-Net A
1 43188U 18014J   24328.17716817  .00010602  00000-0  69074-3 0  9993
2 43188  97.5772 227.5001 0010328 168.7047 191.4415 15.08059043372436
S-Net C
1 43189U 18014K   24328.18150429  .00010831  00000-0  70555-3 0  9996
2 43189  97.5789 227.4842 0012265 163.1684 196.9954 15.08042358370982
Ten-Koh
1 43677U 18084G   24328.42068385  .00006296  00000-0  53301-3 0  9991
2 43677  98.0808 127.0814 0012412 207.1047 152.9527 14.98332077330546
PO-101
1 43678U 18084H   24328.74085233  .00004570  00000-0  40565-3 0  9999
2 43678  98.0865 131.7437 0007937 214.8058 145.2645 14.96675316330771
QO-100
1 43700U 18090A   24328.78219038  .00000154  00000-0  00000+0 0  9998
2 43700   0.0319  95.8358 0002249 186.7284  88.0879  1.00274656 22207
MinXSS-2
1 43758U 18099A   24328.52082381  .00023651  00000-0  12227-2 0  9995
2 43758  97.5335  28.9573 0015142 127.1795 233.0823 15.16164947326860
AO-95
1 43770U 18099N   24327.68949010  .00015232  00000-0  91272-3 0  9990
2 43770  97.5245  22.4768 0012424 174.4220 185.7151 15.11013051326453
RANGE-B
1 43772U 18099Q   24328.39890198  .00032138  00000-0  15618-2 0  9996
2 43772  97.5033  27.5140 0005095  80.5892 279.5918 15.18356608326805
RANGE-A
1 43773U 18099R   24327.67133707  .00010163  00000-0  70651-3 0  9996
2 43773  97.4812  15.9394 0013089 147.2797 212.9244 15.05632826326256
MOVE-II
1 43780U 18099Y   24327.68737386  .00064335  00000-0  21539-2 0  9998
2 43780  97.4985  30.4276 0005132 139.9409 220.2211 15.30700808327031
SNUSat 2
1 43782U 18099AA  24327.95854728  .00016002  00000-0  10017-2 0  9997
2 43782  97.4931  20.9620 0014633 117.1292 243.1432 15.09380149326480
SnugLite
1 43784U 18099AC  24327.89098845  .00018757  00000-0  11157-2 0  9997
2 43784  97.4744  20.2031 0005073 117.8540 242.3204 15.11285905326568
ITASat 1
1 43786U 18099AE  24328.25223756  .00013713  00000-0  88270-3 0  9999
2 43786  97.4882  21.2444 0016106 165.3467 194.8232 15.08374126326514
EAGLET 1
1 43790U 18099AJ  24328.63059990  .00009505  00000-0  65639-3 0  9991
2 43790  97.5088  22.0315 0013726 143.0324 217.1852 15.05892691326240
ESEO
1 43792U 18099AL  24328.53566547  .00004106  00000-0  32429-3 0  9996
2 43792  97.4873  17.5966 0009785 106.3443 253.8858 15.01179404326090
CSIM
1 43793U 18099AM  24328.11445264  .00066214  00000-0  22495-2 0  9992
2 43793  97.5129  32.6924 0009405 116.8256 243.3947 15.30187818326942
